Weather History for KBWD - July, 2013

Change the Weather History Date:

Monday, July 15, 2013

  Actual Average (KABI) Record (KABI)
Temperature  
Mean Temperature 68 °F 83 °F  
Max Temperature 73 °F 94 °F 109 °F (1978)
Min Temperature 64 °F 72 °F 59 °F (1926)
Degree Days  
Heating Degree Days 0 0  
Month to date heating degree days 0  
Since 1 June heating degree days 1  
Since 1 July heating degree days 0  
Cooling Degree Days 4 18  
Month to date cooling degree days 263  
Year to date cooling degree days 1095  
Since 1 June cooling degree days 698  
Growing Degree Days 18 (Base 50)    
Moisture  
Dew Point 67 °F    
Average Humidity 95    
Maximum Humidity 100    
Minimum Humidity 83    
Precipitation  
Precipitation 2.06 in 0.05 in 2.30 in (1983)
Month to date precipitation 0.95  
Year to date precipitation 13.45  
Sea Level Pressure  
Sea Level Pressure 30.02 in    
Wind  
Wind Speed 8 mph (East)    
Max Wind Speed 15 mph    
Max Gust Speed 21 mph    
Visibility 6 miles    
Events Rain , Thunderstorm    
T = Trace of Precipitation, MM = Missing Value Source: NWS Daily Summary

Daily Weather History Graph

Daily Weather History Graph

Search for Another Location

Airport or City:

Trip Planner

Search our weather history database for the weather conditions in past years. The results will help you decide how hot, cold, wet, or windy it might be!

Date:

Astronomy

Jul. 15, 2013 Rise Set
Actual Time 6:41 AM CDT 8:42 PM CDT
Civil Twilight 6:13 AM CDT 9:09 PM CDT
Nautical Twilight 5:40 AM CDT 9:43 PM CDT
Astronomical Twilight 5:04 AM CDT 10:18 PM CDT
Moon 1:32 PM CDT (7/15) 12:23 AM CDT (7/15)
Length of Visible Light 14h 56m
Length of Day
14h 01m
Waxing Crescent, 45% of the Moon is Illuminated
Jul 15
Waxing Crescent
Jul 15
First Quarter
Jul 22
Full
Jul 29
Last Quarter
Aug 6
New

Hourly Weather History & Observations

Time (CDT) Temp. Dew Point Humidity Pressure Visibility Wind Dir Wind Speed Gust Speed Precip Events Conditions
12:15 AM 66.2 °F 66.2 °F 100% 29.97 in 3.0 mi East 11.5 mph - 0.01 in Rain Light Rain
12:35 AM 66.2 °F 66.2 °F 100% 29.98 in 3.0 mi East 9.2 mph - 0.02 in Rain Light Rain
12:55 AM 66.2 °F 66.2 °F 100% 29.97 in 10.0 mi ENE 9.2 mph - 0.03 in   Mostly Cloudy
1:15 AM 66.2 °F 66.2 °F 100% 29.99 in 4.0 mi North 9.2 mph - N/A Rain , Thunderstorm Light Rain
1:35 AM 66.2 °F 64.4 °F 94% 30.00 in 0.8 mi NE 9.2 mph 20.7 mph 0.62 in Rain Heavy Rain
1:55 AM 64.4 °F 64.4 °F 100% 29.99 in 1.5 mi NE 9.2 mph - 0.78 in Rain , Thunderstorm Rain
2:15 AM 64.4 °F 64.4 °F 100% 29.99 in 1.2 mi NE 10.4 mph - 0.05 in Rain Rain
2:35 AM 64.4 °F 64.4 °F 100% 30.01 in 1.5 mi NNE 6.9 mph - 0.19 in Rain Heavy Rain
2:55 AM 64.4 °F 64.4 °F 100% 30.01 in 1.2 mi NNE 6.9 mph - 0.48 in Rain Heavy Rain
3:15 AM 64.4 °F 64.4 °F 100% 30.01 in 1.8 mi NE 5.8 mph - 0.08 in Rain Rain
3:35 AM 64.4 °F 64.4 °F 100% 30.01 in 1.8 mi ENE 6.9 mph - 0.15 in Rain Rain
3:55 AM 64.4 °F 64.4 °F 100% 30.01 in 1.5 mi NNE 3.5 mph - 0.21 in Rain Rain
4:15 AM 64.4 °F 64.4 °F 100% 30.00 in 1.2 mi ENE 9.2 mph - 0.05 in Rain Rain
4:35 AM 64.4 °F 64.4 °F 100% 30.00 in 2.0 mi ENE 8.1 mph - 0.12 in Rain Rain
4:55 AM 64.4 °F 64.4 °F 100% 30.00 in 2.0 mi East 6.9 mph - 0.17 in Rain Rain
5:15 AM 64.4 °F 64.4 °F 100% 29.98 in 3.0 mi East 10.4 mph - 0.02 in Rain Light Rain
5:35 AM 64.4 °F 64.4 °F 100% 29.98 in 5.0 mi North 4.6 mph - 0.04 in Rain Light Rain
5:55 AM 64.4 °F 64.4 °F 100% 29.99 in 10.0 mi North 3.5 mph - 0.05 in Rain Light Rain
6:15 AM 66.2 °F 64.4 °F 94% 30.00 in 10.0 mi NNW 5.8 mph - N/A Rain Light Rain
6:35 AM 66.2 °F 64.4 °F 94% 30.00 in 4.0 mi NNW 4.6 mph - 0.02 in Rain Rain
6:55 AM 64.4 °F 64.4 °F 100% 30.01 in 1.8 mi NW 6.9 mph - 0.13 in Rain Heavy Rain
7:15 AM 64.4 °F 64.4 °F 100% 30.01 in 3.0 mi NNE 3.5 mph - 0.04 in Rain Light Rain
7:35 AM 64.4 °F 64.4 °F 100% 30.01 in 1.5 mi NNE 4.6 mph - 0.06 in Rain Light Rain
7:55 AM 64.4 °F 64.4 °F 100% 30.02 in 7.0 mi North 4.6 mph - 0.09 in Rain Light Rain
8:15 AM 64.4 °F 64.4 °F 100% 30.02 in 10.0 mi North 5.8 mph - N/A Rain Light Rain
8:35 AM 64.4 °F 64.4 °F 100% 30.01 in 10.0 mi NE 4.6 mph - N/A   Overcast
8:55 AM 66.2 °F 64.4 °F 94% 30.01 in 10.0 mi NE 4.6 mph - N/A   Overcast
9:15 AM 66.2 °F 66.2 °F 100% 30.02 in 4.0 mi NNE 4.6 mph - N/A Rain Light Rain
9:35 AM 66.2 °F 66.2 °F 100% 30.02 in 5.0 mi North 4.6 mph - 0.03 in Rain Light Rain
9:55 AM 66.2 °F 66.2 °F 100% 30.03 in 5.0 mi North 5.8 mph - 0.04 in Rain Light Rain
10:15 AM 66.2 °F 66.2 °F 100% 30.03 in 3.0 mi NE 3.5 mph - 0.01 in Rain Light Rain
10:35 AM 66.2 °F 66.2 °F 100% 30.03 in 3.0 mi Calm Calm - 0.02 in Rain Light Rain
10:55 AM 68.0 °F 66.2 °F 94% 30.04 in 4.0 mi NE 3.5 mph - 0.03 in Rain Light Rain
11:15 AM 68.0 °F 66.2 °F 94% 30.04 in 3.0 mi ENE 3.5 mph - N/A Rain Light Rain
11:35 AM 68.0 °F 66.2 °F 94% 30.04 in 4.0 mi ENE 3.5 mph - N/A Rain Light Rain
11:55 AM 68.0 °F 66.2 °F 94% 30.04 in 5.0 mi ENE 3.5 mph - 0.01 in Rain Light Rain
12:15 PM 68.0 °F 68.0 °F 100% 30.04 in 7.0 mi ESE 3.5 mph - N/A Rain Light Rain
12:35 PM 68.0 °F 68.0 °F 100% 30.04 in 3.0 mi East 3.5 mph - N/A Rain Light Rain
12:55 PM 69.8 °F 68.0 °F 94% 30.04 in 5.0 mi ESE 5.8 mph - 0.01 in Rain Light Rain
1:15 PM 69.8 °F 68.0 °F 94% 30.04 in 7.0 mi ESE 5.8 mph - N/A Rain Light Rain
1:35 PM 69.8 °F 68.0 °F 94% 30.03 in 10.0 mi ESE 8.1 mph - N/A Rain Light Rain
1:55 PM 71.6 °F 68.0 °F 88% 30.03 in 10.0 mi ESE 5.8 mph - N/A Rain Light Rain
2:15 PM 71.6 °F 68.0 °F 88% 30.03 in 5.0 mi ESE 6.9 mph - N/A Rain Light Rain
2:35 PM 71.6 °F 69.8 °F 94% 30.02 in 5.0 mi ESE 10.4 mph - N/A Rain Light Rain
2:55 PM 71.6 °F 69.8 °F 94% 30.02 in 8.0 mi SE 9.2 mph - 0.01 in Rain Light Rain
3:15 PM 71.6 °F 69.8 °F 94% 30.02 in 5.0 mi ESE 9.2 mph - N/A Rain Light Rain
3:35 PM 71.6 °F 69.8 °F 94% 30.01 in 3.0 mi ESE 13.8 mph 17.3 mph N/A Rain Light Rain
3:55 PM 71.6 °F 68.0 °F 88% 30.01 in 5.0 mi ESE 13.8 mph - 0.01 in Rain Light Rain
4:15 PM 71.6 °F 68.0 °F 88% 30.01 in 10.0 mi East 13.8 mph - N/A   Mostly Cloudy
4:35 PM 71.6 °F 68.0 °F 88% 30.01 in 10.0 mi ESE 13.8 mph - N/A   Overcast
4:55 PM 71.6 °F 68.0 °F 88% 30.01 in 10.0 mi ESE 13.8 mph 18.4 mph N/A   Overcast
5:15 PM 71.6 °F 68.0 °F 88% 30.01 in 10.0 mi ESE 10.4 mph - N/A   Overcast
5:35 PM 71.6 °F 68.0 °F 88% 30.00 in 10.0 mi ESE 13.8 mph 18.4 mph N/A   Overcast
5:55 PM 71.6 °F 68.0 °F 88% 30.00 in 10.0 mi ESE 12.7 mph - N/A   Overcast
6:15 PM 73.4 °F 68.0 °F 83% 30.00 in 10.0 mi ESE 13.8 mph - N/A   Overcast
6:35 PM 71.6 °F 68.0 °F 88% 30.00 in 3.0 mi ESE 15.0 mph 18.4 mph N/A   Overcast
6:55 PM 71.6 °F 68.0 °F 88% 30.00 in 8.0 mi ESE 10.4 mph - N/A   Mostly Cloudy
7:15 PM 71.6 °F 68.0 °F 88% 30.01 in 5.0 mi SE 9.2 mph - N/A   Mostly Cloudy
7:35 PM 71.6 °F 69.8 °F 94% 30.02 in 4.0 mi SE 10.4 mph - N/A   Mostly Cloudy
7:55 PM 71.6 °F 69.8 °F 94% 30.02 in 1.5 mi ESE 10.4 mph - 0.01 in   Mostly Cloudy
8:15 PM 71.6 °F 69.8 °F 94% 30.03 in 2.5 mi ESE 10.4 mph - N/A   Mostly Cloudy
8:35 PM 71.6 °F 69.8 °F 94% 30.04 in 5.0 mi ESE 6.9 mph - N/A   Overcast
8:55 PM 71.6 °F 69.8 °F 94% 30.04 in 9.0 mi ESE 6.9 mph - N/A   Overcast
9:15 PM 71.6 °F 69.8 °F 94% 30.04 in 10.0 mi ESE 10.4 mph - N/A   Overcast
9:35 PM 71.6 °F 69.8 °F 94% 30.04 in 10.0 mi ESE 10.4 mph - N/A   Overcast
9:55 PM 71.6 °F 69.8 °F 94% 30.05 in 9.0 mi ESE 10.4 mph - N/A Rain Light Rain
10:15 PM 71.6 °F 69.8 °F 94% 30.06 in 10.0 mi SE 6.9 mph - N/A   Overcast
10:35 PM 71.6 °F 69.8 °F 94% 30.07 in 10.0 mi ESE 9.2 mph - N/A   Overcast
10:55 PM 71.6 °F 69.8 °F 94% 30.06 in 6.0 mi ESE 10.4 mph - N/A   Mostly Cloudy
11:15 PM 71.6 °F 69.8 °F 94% 30.07 in 8.0 mi ESE 8.1 mph - N/A Rain Light Rain
11:35 PM 71.6 °F 69.8 °F 94% 30.07 in 6.0 mi ESE 6.9 mph - N/A Rain Light Rain
11:55 PM 71.6 °F 69.8 °F 94% 30.07 in 8.0 mi ESE 6.9 mph - N/A   Mostly Cloudy